EW8655 Weather Reports


Display with metric or nautical units.
time (UTC)temp
F
wind
direction
speed
MPH
gust
MPH
rain 1hr
in
rain 24hr
in
rain mn
in
humidity
%
barometer
mb
20260905201507 73 356 5.0 7.0 0.00 0.00 0.00 71 1011.1
20260905201007 74 28 2.0 7.0 0.00 0.00 0.00 71 1011.1
20260905200507 74 329 4.0 7.0 0.00 0.00 0.00 71 1011.1
20260905200006 73 33 4.0 7.0 0.00 0.00 0.00 71 1011.1
20260905195007 73 0 5.0 7.0 0.00 0.00 0.00 71 1011.1
20260905194506 74 15 2.0 7.0 0.00 0.00 0.00 71 1011.1
20260905194007 75 9 0.0 5.0 0.00 0.00 0.00 71 1011.1
20260905193506 74 34 2.0 5.0 0.00 0.00 0.00 72 1011.3
20260905193007 74 5 2.0 5.0 0.00 0.00 0.00 72 1011.1
20260905192007 74 1 2.0 7.0 0.00 0.00 0.00 73 1011.3
20260905191505 74 339 2.0 5.0 0.00 0.00 0.00 72 1011.9
20260905191007 74 353 2.0 5.0 0.00 0.00 0.00 73 1012.1
20260905185506 73 17 2.0 5.0 0.00 0.00 0.00 74 1011.9
20260905184506 73 146 2.0 5.0 0.00 0.00 0.00 75 1012.1
20260905183507 73 313 2.0 5.0 0.00 0.00 0.00 76 1011.1
20260905183007 73 331 2.0 5.0 0.00 0.00 0.00 76 1011.6
20260905182506 73 8 2.0 5.0 0.00 0.00 0.00 76 1011.3
20260905182006 73 327 2.0 7.0 0.00 0.00 0.00 76 1012.1
20260905181506 72 320 5.0 7.0 0.00 0.00 0.00 76 1011.4
20260905181008 72 18 2.0 7.0 0.00 0.00 0.00 76 1011.1
20260905180508 72 357 3.0 7.0 0.00 0.00 0.00 76 1011.8
20260905180006 72 28 2.0 7.0 0.00 0.00 0.00 76 1012.1
20260905175506 73 333 2.0 7.0 0.00 0.00 0.00 77 1012.1
20260905174505 73 14 2.0 7.0 0.00 0.00 0.00 77 1012.1
20260905174006 73 8 2.0 5.0 0.00 0.00 0.00 76 1011.3
20260905173507 73 356 2.0 5.0 0.00 0.00 0.00 77 1012.1
20260905173006 72 351 2.0 5.0 0.00 0.00 0.00 78 1012.1
20260905172506 72 354 2.0 7.0 0.00 0.00 0.00 79 1012.1
20260905172006 71 9 2.0 7.0 0.00 0.00 0.00 79 1012.1
20260905171506 71 36 5.0 7.0 0.00 0.00 0.00 79 1012.1
20260905171006 71 25 5.0 9.0 0.00 0.00 0.00 79 1011.6
20260905170507 71 317 5.0 9.0 0.00 0.00 0.00 79 1011.1
20260905170005 71 14 5.0 9.0 0.00 0.00 0.00 79 1011.2
20260905165006 71 20 5.0 9.0 0.00 0.00 0.00 79 1011.6
20260905164506 71 10 5.0 7.0 0.00 0.00 0.00 79 1012.1
20260905164007 71 26 5.0 7.0 0.00 0.00 0.00 79 1012.1
20260905163506 71 33 5.0 7.0 0.00 0.00 0.00 79 1012.1
20260905163006 71 35 5.0 9.0 0.00 0.00 0.00 79 1012.1
20260905162506 70 357 6.0 9.0 0.00 0.00 0.00 78 1012.1
20260905162006 71 1 5.0 9.0 0.00 0.00 0.00 79 1012.1
20260905161506 71 11 5.0 9.0 0.00 0.00 0.00 78 1012.1
20260905161007 71 12 5.0 7.0 0.00 0.00 0.00 78 1012.1
20260905160006 71 24 5.0 9.0 0.00 0.00 0.00 79 1012.1
20260905155006 71 5 5.0 7.0 0.00 0.00 0.00 78 1012.1
20260905154505 71 32 3.0 7.0 0.00 0.00 0.00 79 1012.1
20260905154007 71 356 2.0 7.0 0.00 0.00 0.00 79 1012.1
20260905153506 72 25 2.0 7.0 0.00 0.00 0.00 79 1012.1
20260905153007 71 30 2.0 7.0 0.00 0.00 0.00 80 1012.1
20260905152505 70 25 5.0 7.0 0.00 0.00 0.00 80 1012.1
20260905152006 70 14 3.0 7.0 0.00 0.00 0.00 80 1012.1
20260905151506 70 13 5.0 7.0 0.00 0.00 0.00 80 1012.1
20260905151006 70 9 5.0 7.0 0.00 0.00 0.00 80 1012.1
20260905150506 70 12 3.0 5.0 0.00 0.00 0.00 80 1012.1
20260905150006 70 359 4.0 7.0 0.00 0.00 0.00 80 1012.1
20260905145506 70 0 2.0 7.0 0.00 0.00 0.00 80 1012.1
20260905145006 70 11 2.0 5.0 0.00 0.00 0.00 80 1012.1
20260905144506 70 28 5.0 7.0 0.00 0.00 0.00 81 1012.1
20260905144006 70 20 5.0 9.0 0.00 0.00 0.00 80 1012.1
20260905143507 69 352 6.0 9.0 0.00 0.00 0.00 80 1012.1
20260905143006 70 15 5.0 9.0 0.00 0.00 0.00 81 1012.1
20260905142006 70 37 2.0 5.0 0.00 0.00 0.00 81 1012.1
20260905141505 70 40 2.0 5.0 0.00 0.00 0.00 81 1012.1
20260905141006 70 42 2.0 9.0 0.00 0.00 0.00 81 1012.1
20260905140506 69 34 5.0 9.0 0.00 0.00 0.00 82 1012.1
20260905140005 69 9 5.0 9.0 0.00 0.00 0.00 82 1012.1
20260905135505 69 16 5.0 9.0 0.00 0.00 0.00 82 1012.1
20260905135006 69 27 2.0 7.0 0.00 0.00 0.00 83 1012.1
20260905134505 69 16 5.0 5.0 0.00 0.00 0.00 83 1012.1
20260905134006 69 50 5.0 9.0 0.00 0.00 0.00 83 1012.1
20260905133506 69 27 5.0 9.0 0.00 0.00 0.00 83 1012.1
20260905133006 68 45 5.0 9.0 0.00 0.00 0.00 83 1012.1
20260905132505 68 10 6.0 9.0 0.00 0.00 0.00 83 1012.1
20260905132006 68 32 7.0 12.0 0.00 0.00 0.00 83 1012.1
20260905131505 68 18 7.0 12.0 0.00 0.00 0.00 82 1012.1
20260905131006 69 22 5.0 12.0 0.00 0.00 0.00 82 1012.1
20260905130506 69 28 4.0 9.0 0.00 0.00 0.00 82 1012.1
20260905130006 69 13 2.0 9.0 0.00 0.00 0.00 82 1012.1
20260905125505 69 37 5.0 9.0 0.00 0.00 0.00 81 1012.1
20260905125006 69 16 5.0 9.0 0.00 0.00 0.00 82 1012.1
20260905124505 69 21 5.0 12.0 0.00 0.00 0.00 81 1012.1
20260905123005 69 36 6.0 12.0 0.00 0.00 0.00 81 1012.1
20260905122506 69 26 5.0 7.0 0.00 0.00 0.00 81 1012.1
20260905122006 69 21 5.0 12.0 0.00 0.00 0.00 81 1012.1
20260905121506 69 9 5.0 12.0 0.00 0.00 0.00 81 1012.1
20260905120005 69 36 2.0 7.0 0.00 0.00 0.00 81 1012.1
20260905115006 69 46 5.0 9.0 0.00 0.00 0.00 82 1012.1
20260905114505 69 28 5.0 9.0 0.00 0.00 0.00 83 1012.1
20260905114007 69 18 5.0 9.0 0.00 0.00 0.00 83 1012.1
20260905113506 69 20 5.0 9.0 0.00 0.00 0.00 83 1012.1
20260905113006 69 30 7.0 9.0 0.00 0.00 0.00 82 1012.1
20260905112505 69 33 5.0 9.0 0.00 0.00 0.00 82 1012.1
20260905112007 69 27 5.0 9.0 0.00 0.00 0.00 82 1012.1
20260905111505 69 16 5.0 9.0 0.00 0.00 0.00 82 1012.1
20260905111006 68 32 5.0 9.0 0.00 0.00 0.00 82 1012.1
20260905110506 68 23 7.0 9.0 0.00 0.00 0.00 83 1012.1
20260905110006 68 348 7.0 9.0 0.00 0.00 0.00 82 1012.1
20260905105006 68 26 7.0 12.0 0.00 0.00 0.00 82 1012.1
20260905104505 68 15 7.0 9.0 0.00 0.00 0.00 81 1011.4
20260905104006 68 18 5.0 9.0 0.00 0.00 0.00 81 1011.1
20260905102505 68 18 5.0 12.0 0.00 0.00 0.00 81 1010.1
20260905102005 68 15 5.0 12.0 0.00 0.00 0.00 81 1010.1
20260905101506 69 27 5.0 12.0 0.00 0.00 0.00 80 1010.1
20260905101006 69 15 7.0 12.0 0.00 0.00 0.00 80 1010.1
20260905100506 69 10 7.0 9.0 0.00 0.00 0.00 80 1010.1
20260905094505 69 28 5.0 7.0 0.00 0.00 0.00 79 1010.1
20260905094007 69 35 4.0 9.0 0.00 0.00 0.00 79 1010.1
20260905093007 69 22 5.0 9.0 0.00 0.00 0.00 78 1010.1
20260905092008 69 36 2.0 7.0 0.00 0.00 0.00 78 1010.1
20260905091008 69 27 5.0 7.0 0.00 0.00 0.00 77 1010.1
20260905090508 69 57 5.0 9.0 0.00 0.00 0.00 77 1010.1
20260905090008 69 25 6.0 9.0 0.00 0.00 0.00 77 1010.1
20260905085507 69 33 2.0 5.0 0.00 0.00 0.00 77 1010.1
20260905085008 69 28 2.0 5.0 0.00 0.00 0.00 77 1010.1
20260905084008 69 43 5.0 9.0 0.00 0.00 0.00 77 1010.1
20260905083508 70 42 5.0 9.0 0.00 0.00 0.00 77 1010.1
20260905083009 70 22 7.0 12.0 0.00 0.00 0.00 77 1010.1
20260905082506 70 28 5.0 12.0 0.00 0.00 0.00 77 1010.1
20260905082008 70 15 3.0 7.0 0.00 0.00 0.00 77 1010.1
20260905081507 70 30 5.0 9.0 0.00 0.00 0.00 77 1010.1
20260905081008 70 8 5.0 9.0 0.00 0.00 0.00 76 1010.1
20260905080507 70 6 7.0 12.0 0.00 0.00 0.00 76 1010.1
20260905080007 70 21 7.0 12.0 0.00 0.00 0.00 76 1010.1
20260905075507 70 20 7.0 12.0 0.00 0.00 0.00 76 1010.1
20260905075007 70 15 7.0 12.0 0.00 0.00 0.00 76 1010.1
20260905074507 70 26 5.0 12.0 0.00 0.00 0.00 76 1010.1
20260905073507 70 343 5.0 9.0 0.00 0.00 0.00 76 1010.1
20260905072008 71 17 5.0 9.0 0.00 0.00 0.00 75 1010.1
20260905071507 70 49 2.0 5.0 0.00 0.00 0.00 75 1010.1
20260905071008 71 42 2.0 5.0 0.00 0.00 0.00 74 1010.1
20260905070508 71 60 2.0 5.0 0.00 0.00 0.00 75 1010.1
20260905065507 71 36 0.0 5.0 0.00 0.00 0.00 75 1010.6
20260905065008 71 47 2.0 5.0 0.00 0.00 0.00 75 1010.2
20260905064507 71 47 2.0 5.0 0.00 0.00 0.00 74 1010.4
20260905063510 71 43 2.0 5.0 0.00 0.00 0.00 74 1011.1
20260905063008 71 39 0.0 5.0 0.00 0.00 0.00 74 1010.2
20260905062507 71 47 2.0 5.0 0.00 0.00 0.00 74 1011.1
20260905062008 71 37 2.0 5.0 0.00 0.00 0.00 74 1010.6
20260905061507 71 49 2.0 5.0 0.00 0.00 0.00 74 1011.1
20260905061008 71 44 2.0 5.0 0.00 0.00 0.00 74 1011.1
20260905060507 71 53 2.0 5.0 0.00 0.00 0.00 74 1011.1
20260905060007 71 51 2.0 5.0 0.00 0.00 0.00 74 1011.1
20260905055507 71 55 4.0 7.0 0.00 0.00 0.00 74 1011.1
20260905055008 71 49 4.0 7.0 0.00 0.00 0.00 75 1011.1
20260905054507 71 51 4.0 7.0 0.00 0.00 0.00 75 1011.1
20260905054007 71 41 5.0 7.0 0.00 0.00 0.00 74 1011.1
20260905053507 71 56 5.0 7.0 0.00 0.00 0.00 74 1011.1
20260905053007 71 44 5.0 7.0 0.00 0.00 0.00 74 1011.1
20260905052507 71 56 5.0 5.0 0.00 0.00 0.00 75 1011.1
20260905051507 71 59 5.0 9.0 0.00 0.00 0.00 75 1011.1
20260905051007 71 47 6.0 9.0 0.00 0.00 0.00 74 1011.1
20260905050508 71 54 7.0 9.0 0.00 0.00 0.00 75 1011.1
20260905050007 71 51 7.0 9.0 0.00 0.00 0.00 76 1011.1
20260905045507 71 40 5.0 7.0 0.00 0.00 0.00 76 1011.1
20260905045007 71 58 5.0 7.0 0.00 0.00 0.00 76 1011.1
20260905044507 71 42 5.0 7.0 0.00 0.00 0.00 76 1011.1
20260905044007 71 21 5.0 7.0 0.00 0.00 0.00 77 1011.1
20260905043008 71 42 5.0 7.0 0.00 0.00 0.00 76 1011.1
20260905042507 71 46 5.0 7.0 0.00 0.00 0.00 77 1011.1
20260905042008 71 45 5.0 7.0 0.00 0.00 0.00 78 1011.5
20260905040507 69 285 0.0 5.0 0.00 0.00 0.00 85 1011.1
20260905040006 68 280 1.0 5.0 0.00 0.00 0.00 84 1011.1
20260905035507 68 267 5.0 5.0 0.00 0.00 0.00 83 1011.1
20260905035007 68 273 5.0 5.0 0.00 0.00 0.00 83 1011.1
20260905034507 68 277 5.0 5.0 0.00 0.00 0.00 83 1011.1
20260905033507 69 287 5.0 7.0 0.00 0.00 0.00 81 1011.1
20260905033007 69 264 5.0 7.0 0.00 0.00 0.00 81 1011.1
20260905032506 69 278 5.0 7.0 0.00 0.00 0.00 80 1010.6
20260905032007 69 271 5.0 7.0 0.00 0.00 0.00 80 1010.1
20260905031507 69 263 7.0 7.0 0.00 0.00 0.00 79 1010.2
20260905031007 69 264 5.0 7.0 0.00 0.00 0.00 79 1010.1
20260905030507 69 266 6.0 7.0 0.00 0.00 0.00 79 1010.1
20260905025507 70 282 5.0 7.0 0.00 0.00 0.00 78 1010.1
20260905025008 70 276 5.0 7.0 0.00 0.00 0.00 77 1010.1
20260905024506 70 271 5.0 7.0 0.00 0.00 0.00 77 1010.1
20260905024007 70 278 5.0 7.0 0.00 0.00 0.00 76 1010.1
20260905023507 70 275 7.0 7.0 0.00 0.00 0.00 76 1010.1
20260905023008 70 271 6.0 7.0 0.00 0.00 0.00 76 1010.6
20260905022507 70 277 5.0 7.0 0.00 0.00 0.00 75 1010.5
20260905022007 70 279 5.0 7.0 0.00 0.00 0.00 75 1010.1
20260905021507 71 283 7.0 7.0 0.00 0.00 0.00 74 1010.2
20260905021008 71 275 7.0 7.0 0.00 0.00 0.00 74 1010.1
20260905020507 71 276 7.0 9.0 0.00 0.00 0.00 74 1010.1
20260905020007 71 279 7.0 9.0 0.00 0.00 0.00 74 1010.6
20260905015507 71 275 7.0 7.0 0.00 0.00 0.00 73 1010.1
20260905015007 71 272 5.0 7.0 0.00 0.00 0.00 73 1010.1
20260905014007 71 275 5.0 7.0 0.00 0.00 0.00 73 1011.1
20260905013507 71 281 5.0 7.0 0.00 0.00 0.00 73 1011.1
20260905013007 71 274 5.0 7.0 0.00 0.00 0.00 73 1010.2
20260905012506 71 272 5.0 7.0 0.00 0.00 0.00 73 1010.1
20260905012007 71 282 5.0 7.0 0.00 0.00 0.00 72 1010.6
20260905011507 71 272 6.0 7.0 0.00 0.00 0.00 72 1010.1
20260905011007 71 267 5.0 7.0 0.00 0.00 0.00 72 1010.1
20260905010507 72 269 6.0 7.0 0.00 0.00 0.00 72 1010.1
20260905005508 72 266 7.0 9.0 0.00 0.00 0.00 71 1010.1
20260905005007 72 263 7.0 7.0 0.00 0.00 0.00 71 1010.1
20260905004507 72 270 5.0 7.0 0.00 0.00 0.00 72 1010.1
20260905004007 72 274 5.0 7.0 0.00 0.00 0.00 72 1010.1
20260905003507 72 267 7.0 9.0 0.00 0.00 0.00 71 1010.1
20260905002507 72 274 7.0 9.0 0.00 0.00 0.00 70 1010.1
20260905002007 72 273 7.0 9.0 0.00 0.00 0.00 70 1010.1
20260905001506 72 273 7.0 9.0 0.00 0.00 0.00 70 1010.1
20260905000507 72 276 7.0 7.0 0.00 0.00 0.00 70 1010.1
20260905000007 73 280 5.0 7.0 0.00 0.00 0.00 70 1010.1
20260904235506 73 290 5.0 7.0 0.00 0.00 0.00 71 1010.1
20260904235007 73 264 5.0 7.0 0.00 0.00 0.00 71 1010.1
20260904234507 73 281 5.0 7.0 0.00 0.00 0.00 70 1010.1
20260904234007 73 266 5.0 7.0 0.00 0.00 0.00 69 1010.1
20260904233507 73 276 5.0 7.0 0.00 0.00 0.00 69 1010.1
20260904233007 73 283 5.0 5.0 0.00 0.00 0.00 69 1010.1
20260904232507 73 288 5.0 5.0 0.00 0.00 0.00 68 1010.1
20260904232007 73 278 5.0 7.0 0.00 0.00 0.00 68 1010.1
20260904231506 73 281 5.0 7.0 0.00 0.00 0.00 67 1010.1
20260904231007 74 280 5.0 7.0 0.00 0.00 0.00 67 1010.1
20260904230507 74 265 5.0 7.0 0.00 0.00 0.00 67 1010.1
20260904230006 74 271 5.0 7.0 0.00 0.00 0.00 65 1010.1
20260904225506 74 278 5.0 7.0 0.00 0.00 0.00 65 1010.1
20260904224506 75 285 5.0 7.0 0.00 0.00 0.00 64 1010.1
20260904224007 75 264 5.0 7.0 0.00 0.00 0.00 63 1009.6
20260904223507 75 274 7.0 7.0 0.00 0.00 0.00 63 1009.1
20260904223007 75 272 5.0 7.0 0.00 0.00 0.00 63 1009.1
20260904222507 75 269 5.0 7.0 0.00 0.00 0.00 62 1009.1
20260904222007 75 284 5.0 7.0 0.00 0.00 0.00 62 1009.1
20260904221507 75 293 5.0 7.0 0.00 0.00 0.00 63 1009.8
20260904221007 75 279 5.0 7.0 0.00 0.00 0.00 62 1009.1
20260904220506 75 279 5.0 7.0 0.00 0.00 0.00 62 1009.6
20260904220006 75 284 5.0 9.0 0.00 0.00 0.00 61 1009.1
20260904215506 75 305 5.0 9.0 0.00 0.00 0.00 62 1009.6
20260904215007 76 296 5.0 7.0 0.00 0.00 0.00 63 1009.1
20260904214506 76 294 5.0 7.0 0.00 0.00 0.00 63 1009.8
20260904214006 76 266 5.0 7.0 0.00 0.00 0.00 63 1009.1
20260904213507 76 269 5.0 7.0 0.00 0.00 0.00 62 1009.6
20260904213006 76 275 5.0 7.0 0.00 0.00 0.00 62 1010.1
20260904212506 76 283 5.0 7.0 0.00 0.00 0.00 61 1010.1
20260904212006 76 278 5.0 9.0 0.00 0.00 0.00 61 1010.1
20260904211506 76 282 5.0 9.0 0.00 0.00 0.00 61 1010.1
20260904211007 76 282 5.0 7.0 0.00 0.00 0.00 61 1010.1
20260904210507 77 284 5.0 7.0 0.00 0.00 0.00 60 1010.1
20260904210006 77 300 5.0 7.0 0.00 0.00 0.00 60 1010.1
20260904205506 77 297 5.0 7.0 0.00 0.00 0.00 60 1010.1
20260904205007 77 282 5.0 9.0 0.00 0.00 0.00 60 1010.1
20260904204506 77 288 5.0 9.0 0.00 0.00 0.00 60 1010.1
20260904204006 77 283 5.0 9.0 0.00 0.00 0.00 59 1010.1
20260904203006 77 292 7.0 9.0 0.00 0.00 0.00 59 1010.1
20260904202506 77 288 5.0 9.0 0.00 0.00 0.00 59 1010.1
20260904202007 78 288 5.0 7.0 0.00 0.00 0.00 58 1010.1